World > North America > United States > South Carolina > Myrtle Beach   City of Myrtle Beach, South Carolina

Myrtle Beach, SC Hourly Weather Updates

Feedback E-mail the Weather

Quick WX

Myrtle Beach, SC Weather Maps

°F °C°F °C
Myrtle Beach Weather Map
UTC Time: 3/5/2024, 04:16
Your Time:

Myrtle Beach, SC Regional Weather

Expires:202403050500;;422538
ASUS42 KCAE 050410
RWRCAE
REGIONAL WEATHER ROUNDUP
NATIONAL WEATHER SERVICE COLUMBIA SC
1100 PM EST MON MAR 04 2024

NOTE: "FAIR" INDICATES FEW OR NO CLOUDS BELOW 12,000 FEET WITH NO
SIGNIFICANT WEATHER AND/OR OBSTRUCTIONS TO VISIBILITY.

NOT ALL STATIONS ARE QUALITY CONTROLLED BY THE NATIONAL 
WEATHER SERVICE. USE DATA WITH CAUTION...ESPECIALLY 
DEWPOINT OBSERVATIONS.


SCZ001>059-115-116-135>137-GAZ040-063>065-077-050500-
...UPSTATE SOUTH CAROLINA...
  
CITY           SKY/WX    TMP DP  RH WIND       PRES   REMARKS
ANDERSON       CLOUDY    62  54  74 SE5       30.12S                  
LIBERTY        CLOUDY    58  56  92 CALM      30.12S                  
SPARTANBURG    CLOUDY    55  48  76 CALM      30.13S                  
CLEMSON        CLOUDY    63  55  75 CALM      30.12S                  
GREENVILLE     PTCLDY    59  52  77 N3        30.14R                  
GREENWOOD      CLEAR     55  53  93 CALM      30.13S                  
GREER          MOCLDY    56  49  77 CALM      30.13S                  
ROCK HILL      CLEAR     48  48 100 CALM      30.14R                  
CHESTER        CLEAR     52  50  93 CALM      30.14                   
LAURENS        CLEAR     50  50 100 CALM      30.13S                  


...CENTRAL SOUTH CAROLINA...
  
CITY           SKY/WX    TMP DP  RH WIND       PRES   REMARKS
COLUMBIA APT   CLEAR     53  52  96 CALM      30.12S                  
COLUMBIA OWENS CLEAR     53  51  93 CALM      30.13S                  
MCENTIRE ANGB  CLEAR     52  51  95 CALM      30.11R FOG              
ORANGEBURG     CLEAR     57  54  89 CALM      30.11F                  
SUMTER SHAW    CLEAR     55  50  84 CALM      30.10S                  
NEWBERRY       CLEAR     54  52  94 CALM      30.15F                  
AIKEN          CLEAR     53  51  93 W3        30.13R                  
BARNWELL       CLEAR     54  52  94 CALM      30.11S                  
MANNING        CLEAR     52  50  93 CALM      30.12S                  
CAMDEN         CLEAR     54  50  87 CALM      30.13R                  
LANCASTER      PTCLDY    52  50  93 CALM      30.13S                  
WINNSBORO      CLEAR     52  50  93 CALM      30.13S                  


...EASTERN AND COASTAL SOUTH CAROLINA...
  
CITY           SKY/WX    TMP DP  RH WIND       PRES   REMARKS
MYRTLE BEACH   CLEAR     60  59  96 S3        30.12S                  
N MYRTLE BCH   CLEAR     60  53  77 CALM      30.10R                  
CONWAY         CLEAR     52  52 100 CALM      30.11S                  
MARION         CLOUDY    59  59 100 NE3       30.11S                  
HARTSVILLE     MOCLDY    59  50  72 N5        30.11S                  
FLORENCE       CLEAR     57  50  77 N7        30.11S                  
DARLINGTON     PTCLDY    55  52  89 N6        30.12S                  
CHARLESTON APT PTCLDY    60  55  83 CALM      30.11F                  
MOUNT PLEASANT CLEAR     59  59 100 CALM      30.11S FOG              
WALTERBORO     CLEAR     54  52  94 CALM      30.12S                  
BEAUFORT       CLEAR     57  54  89 CALM      30.11S                  
HILTON HEAD    PTCLDY    59  57  94 CALM      30.12S                  


...EASTERN GEORGIA...
  
CITY           SKY/WX    TMP DP  RH WIND       PRES   REMARKS
AUGUSTA BUSH F CLEAR     56  52  86 CALM      30.10R                  
AUGUSTA DANIEL CLEAR     64  53  67 E3        30.12R                  
THOMSON        CLEAR     56  54  94 CALM      30.12R                  
WASHINGTON     CLEAR     56  55  95 E5        30.12S                  
CLAXTON        PTCLDY    56  55  94 CALM      30.12R                  
SYLVANIA       CLEAR     56  55  96 CALM      30.13R                  
STATESBORO     CLEAR     55  54  94 CALM      30.12R                  
SAVANNAH       CLEAR     59  56  89 CALM      30.12R                  


...SOUTHERN NORTH CAROLINA...
  
CITY           SKY/WX    TMP DP  RH WIND       PRES   REMARKS
CHARLOTTE      PTCLDY    55  47  74 W3        30.14R                  
MONROE         CLEAR     54  48  80 NE3       30.12S                  
WADESBORO      CLEAR     51  49  96 CALM      30.12F FOG              
ROCKINGHAM     CLEAR     55  51  86 CALM      30.12S                  
RUTHERFORDTON  CLOUDY    59  46  63 CALM      30.16R                  
ASHEVILLE      CLOUDY    58  48  69 S3        30.16R                  

$$
  

SKY/WX - Weather  TMP - Temperature  DP - Dew Point  RH - Humidity
WIND - Wind Direction/Speed PRES - Barometric Pressure VSB - Visibility
WCI - Wind Chill Index E13G22 Wind - East Wind 13 mph/Gusts of 22 mph

Trending Headlines

Trending Entertainment Headlines

Myrtle Beach Radar Loop

Use the map search tool if you want to place a location marker on the radar map...

Myrtle Beach Quick Facts

National Two Day Weather Forecast


E-mail the Myrtle Beach Weather Forecast

Voice your opinion or tell us about page issues...